Simultaneous Nadir Overpasses (SNOs) Predictions

Prediction of SNOs between LANDSAT-8 and METOP-A Satellite Orbit:

Table of predicted SNOs for the next 14.0 days since TLE Epoch: 10/26/2019
Index Date (LANDSAT-8) Time (LANDSAT-8) Lat,Lon (LANDSAT-8) SZA (LANDSAT-8 ) Date (METOP-A) Time (METOP-A) Lat,Lon (METOP-A) SZA (METOP-A ) Distance(km) Time Diff (sec)
1 10/27/2019 00:18:54 -81.48, 41.85 82.90 10/27/2019 00:18:42 -81.48, 41.94 82.90 1.46 12
2 10/27/2019 01:08:21 81.47,-150.78 97.07 10/27/2019 01:09:23 81.48,-150.72 97.12 1.44 62
3 10/29/2019 19:53:09 -81.48, 108.37 81.95 10/29/2019 19:53:06 -81.48, 108.29 81.96 1.55 3
4 10/29/2019 20:42:36 81.47, -84.29 98.03 10/29/2019 20:43:47 81.48, -84.39 98.05 1.80 71
5 11/01/2019 14:37:58 81.47, 6.87 98.92 11/01/2019 14:36:50 81.48, 7.02 98.91 2.55 68
6 11/01/2019 15:27:25 -81.47, 174.47 81.08 11/01/2019 15:27:30 -81.48, 174.62 81.06 2.71 5
7 11/04/2019 10:12:12 81.47, 73.31 99.80 11/04/2019 10:11:13 81.48, 73.31 99.77 0.93 59
8 11/04/2019 11:01:39 -81.47,-119.08 80.20 11/04/2019 11:01:53 -81.48,-119.07 80.19 0.89 14
9 11/07/2019 05:46:26 81.49, 140.12 100.69 11/07/2019 05:45:36 81.48, 139.99 100.65 2.35 50




NCC Satellite Simultaneous Nadir Overpasses (SNOs) Prediction Service
